Location: Sabalos
(43.2860°N, 0.1414°E)
Time: 08:52:49
(UTC+00:00)

Delta 2 Rocket - Pass Details

Date: 05 July 2020
Orbit: 416 x 807 km, 35.6° (Epoch: 14 August)

Event Time Altitude Azimuth Distance (km) Brightness Sun altitude
Rises 20:20:20 0° 244° (WSW) 2,431 7.0 -6.4°
Reaches altitude 10° 20:22:50 10° 229° (SW) 1,522 5.7 -6.8°
Maximum altitude 20:25:32 22° 176° (S) 977 4.2 -7.1°
Drops below altitude 10° 20:28:09 10° 124° (SE) 1,481 4.8 -7.5°
Enters shadow 20:28:11 10° 124° (ESE) 1,492 4.9 -7.5°
